DW0333 Tranby-Lier NO current weather conditions

sailwx.info

Wind from 146 at 1 knots

Air temperature 3.9° C
Dewpoint 1.1° C

Last reported at 2017-Feb-26 11:51 UTC.
Time now 2017-Feb-26 13:03 UTC

Location: N 59°50' E 010°17'.
View on Google Maps.

See reports from other nearby stations

  
Tides and Currents Weather Stations Pressure Air Temp Water Temp Dewpoint Dewpoint Depression Visibility Wind Speed Wind Dir Waves Ship Positions
date/time (UTC)wind fromknots sea level pressurealtimeterstation pressurevisibilityair tempwater tempwave heightnotes
2017-Feb-26 11:51 146 1 3.9
2017-Feb-26 11:34 150 1 3.9
2017-Feb-26 11:18 153 1 3.3
2017-Feb-26 11:03 148 0 2.8
2017-Feb-26 10:48 149 0 2.8
2017-Feb-26 10:33 148 0 3.3
2017-Feb-26 10:17 148 1 2.8
2017-Feb-26 10:02 221 1 3.3
2017-Feb-26 09:47 281 3 2.8
2017-Feb-26 09:31 315 3 1.7
2017-Feb-26 09:16 284 2 1.1
2017-Feb-26 09:02 322 2 -0.0
2017-Feb-26 08:46 304 1 -0.6
2017-Feb-26 08:32 298 2 -0.6
2017-Feb-26 08:16 290 3 -0.6
2017-Feb-26 08:03 295 1 -1.1
2017-Feb-26 07:46 297 1 -1.1
2017-Feb-26 07:31 325 0 -1.7
2017-Feb-26 07:16 330 1 -2.2
2017-Feb-26 07:01 294 2 -2.2
2017-Feb-26 06:46 321 0 -2.2
2017-Feb-26 06:28 285 1 -2.8
2017-Feb-26 06:13 321 1 -2.8
2017-Feb-26 05:58 293 1 -2.8
2017-Feb-26 05:43 321 0 -2.8
2017-Feb-26 05:28 321 0 -3.3
2017-Feb-26 05:13 324 1 -3.3
2017-Feb-26 04:57 354 1 -3.3
2017-Feb-26 04:42 051 -3.9
2017-Feb-26 04:27 051 -3.9
2017-Feb-26 04:12 051 0 -3.9
2017-Feb-26 03:56 054 -3.9
2017-Feb-26 03:41 054 -3.9
2017-Feb-26 03:26 055 0 -3.3
2017-Feb-26 03:11 058 2 -3.9
2017-Feb-26 02:56 069 0 -3.9
2017-Feb-26 02:41 054 0 -3.3
2017-Feb-26 02:26 039 -3.3
2017-Feb-26 02:11 036 0 -3.3
2017-Feb-26 01:56 319 0 -2.8
2017-Feb-26 01:41 307 1 -2.8
2017-Feb-26 01:24 299 0 -2.8
2017-Feb-26 01:11 303 -2.2
2017-Feb-26 00:53 303 0 -2.2
2017-Feb-26 00:38 299 1 -2.2
2017-Feb-26 00:23 291 1 -2.2
2017-Feb-26 00:08 302 0 -1.7
2017-Feb-25 23:52 304 3 -1.7
2017-Feb-25 23:37 293 3 -1.7
2017-Feb-25 23:22 330 1 -1.1
2017-Feb-25 23:07 269 1 -1.1
2017-Feb-25 22:51 286 0 -1.1
2017-Feb-25 22:36 112 0 -1.1
2017-Feb-25 22:21 067 0 -1.1
2017-Feb-25 22:06 066 -1.1
2017-Feb-25 21:51 067 -1.1
2017-Feb-25 21:36 067 0 -1.1
2017-Feb-25 21:21 067 0 -1.1
2017-Feb-25 21:06 070 0 -1.1
2017-Feb-25 20:51 086 0 -1.1
2017-Feb-25 20:34 086 1 -1.1
2017-Feb-25 20:19 133 1 -1.1
2017-Feb-25 20:04 144 3 -1.1
2017-Feb-25 19:48 155 3 -1.1
2017-Feb-25 19:33 147 4 -1.1
2017-Feb-25 19:18 149 4 -1.1
2017-Feb-25 19:02 123 5 -1.1
2017-Feb-25 18:47 179 5 -1.1
2017-Feb-25 18:31 207 5 -1.1
2017-Feb-25 18:17 161 5 -1.1
2017-Feb-25 18:02 109 6 -1.7
2017-Feb-25 17:46 116 6 -1.7
2017-Feb-25 17:31 111 6 -1.7
2017-Feb-25 17:16 102 6 -1.7
2017-Feb-25 17:02 118 6 -1.7
2017-Feb-25 16:46 075 6 -1.7
2017-Feb-25 16:31 119 6 -1.7
2017-Feb-25 16:16 104 7 -1.7
2017-Feb-25 16:01 119 6 -1.7
2017-Feb-25 15:46 083 6 -1.7
2017-Feb-25 15:31 094 8 -2.2
2017-Feb-25 15:16 142 6 -2.2
2017-Feb-25 14:58 109 6 -2.2
2017-Feb-25 14:43 106 6 -2.8
2017-Feb-25 14:28 121 6 -2.8
2017-Feb-25 14:13 112 5 -3.3
2017-Feb-25 13:57 112 5 -3.3
2017-Feb-25 13:42 115 4 -2.8
2017-Feb-25 13:27 129 5 -2.8
2017-Feb-25 13:12 159 5 -2.8
2017-Feb-25 12:56 096 6 -2.8
2017-Feb-25 12:41 156 6 -2.2
2017-Feb-25 12:26 136 5 -2.2
2017-Feb-25 12:11 146 5 -2.2
2017-Feb-25 11:56 181 6 -2.8
2017-Feb-25 11:41 217 5 -2.8
2017-Feb-25 11:26 147 6 -2.8
2017-Feb-25 11:11 162 5 -2.2
2017-Feb-25 10:56 127 3 -1.7
2017-Feb-25 10:41 158 5 -2.2
2017-Feb-25 10:26 121 5 -2.8
2017-Feb-25 10:09 101 4 -2.8
2017-Feb-25 09:53 108 5 -2.8
2017-Feb-25 09:38 122 3 -2.8
2017-Feb-25 09:23 133 3 -3.3
2017-Feb-25 09:07 138 4 -3.3
2017-Feb-25 08:52 152 4 -3.9
2017-Feb-25 08:37 082 4 -4.4
2017-Feb-25 08:21 081 2 -5.0
2017-Feb-25 08:06 087 2 -5.0
2017-Feb-25 07:51 141 1 -5.0
2017-Feb-25 07:36 229 0 -5.0
2017-Feb-25 07:21 288 -5.0
2017-Feb-25 07:06 287 -5.6
2017-Feb-25 06:51 288 -5.6
2017-Feb-25 06:36 287 1 -6.1
2017-Feb-25 06:21 306 1 -6.1
2017-Feb-25 06:04 318 1 -5.6
2017-Feb-25 05:51 303 3 -5.6
2017-Feb-25 05:34 299 3 -5.6
2017-Feb-25 05:18 310 0 -5.6
2017-Feb-25 05:02 305 2 -5.6
2017-Feb-25 04:48 302 2 -5.6
2017-Feb-25 04:33 310 1 -5.6
2017-Feb-25 04:17 284 3 -5.6
2017-Feb-25 04:02 296 3 -5.6
2017-Feb-25 03:47 304 3 -5.6
2017-Feb-25 03:31 292 3 -5.6
2017-Feb-25 03:16 304 1 -5.6
2017-Feb-25 03:01 298 3 -5.6
2017-Feb-25 02:46 294 2 -5.6
2017-Feb-25 02:31 302 3 -5.6
2017-Feb-25 02:16 288 2 -5.0
2017-Feb-25 02:02 300 4 -5.0
2017-Feb-25 01:46 310 2 -4.4
2017-Feb-25 01:32 306 3 -4.4
2017-Feb-25 01:16 339 3 -4.4
2017-Feb-25 01:01 341 2 -4.4
2017-Feb-25 00:44 307 2 -4.4
2017-Feb-25 00:32 291 3 -4.4
2017-Feb-25 00:13 299 1 -5.0
2017-Feb-24 23:58 294 2 -5.0
2017-Feb-24 23:43 299 3 -5.0
2017-Feb-24 23:28 319 2 -5.0
2017-Feb-24 23:12 304 1 -4.4
2017-Feb-24 22:57 030 1 -4.4
2017-Feb-24 22:42 017 2 -4.4
2017-Feb-24 22:26 338 3 -4.4
2017-Feb-24 22:11 292 4 -4.4
2017-Feb-24 21:56 346 1 -4.4
2017-Feb-24 21:41 315 1 -4.4
2017-Feb-24 21:26 319 2 -3.9
2017-Feb-24 21:11 324 3 -3.9
2017-Feb-24 20:56 321 3 -3.9
2017-Feb-24 20:41 326 3 -3.3
2017-Feb-24 20:26 250 3 -3.3
2017-Feb-24 20:11 336 2 -3.3
2017-Feb-24 19:56 293 4 -3.3
2017-Feb-24 19:41 327 1 -3.3
2017-Feb-24 19:24 314 3 -3.3
2017-Feb-24 19:08 292 2 -3.3
2017-Feb-24 18:53 328 1 -3.3
2017-Feb-24 18:38 319 1 -2.8
2017-Feb-24 18:22 326 0 -2.8
2017-Feb-24 18:07 281 2 -2.8
2017-Feb-24 17:52 030 0 -2.2
2017-Feb-24 17:37 014 2 -2.2
2017-Feb-24 17:21 302 2 -2.2
2017-Feb-24 17:06 335 1 -1.7
2017-Feb-24 16:51 300 2 -1.7
2017-Feb-24 16:36 319 3 -1.1
2017-Feb-24 16:21 291 3 -0.0
2017-Feb-24 16:06 305 3 0.6
2017-Feb-24 15:51 319 3 1.1
2017-Feb-24 15:36 306 5 1.1
2017-Feb-24 15:21 292 4 1.1
2017-Feb-24 15:06 293 6 1.1
2017-Feb-24 14:51 277 4 1.7
2017-Feb-24 14:34 248 5 1.7
2017-Feb-24 14:19 267 5 1.7
2017-Feb-24 14:03 289 6 1.7
2017-Feb-24 13:48 298 5 2.2
2017-Feb-24 13:33 331 6 1.7
2017-Feb-24 13:17 294 5 1.7
2017-Feb-24 13:03 297 5 1.7